This demonstration page uses our WeatherBlox Daily Observations layout. Learn more.

Hourly Observations for August 2, 2019

Temp ( °F °C ) Dew Point ( °F °C ) Humidity (%) Winds ( mph kmh ) Pressure ( in mb ) Visibility ( mi km ) Precip ( " mm )
12:15 am 00:15 Cloudy 73 22.7 69 20.6 88 88 ESE 9 15 30 1016 10 16.09344 0 0
12:35 am 00:35 Mostly Cloudy 72 22.3 69 20.5 90 90 ESE 9 15 30 1016 10 16.09344 0 0
12:55 am 00:55 Partly Cloudy 72 22.2 69 20.3 89 89 SE 9 15 30 1016 10 16.09344 0 0
1:15 am 01:15 Clear 71 21.9 68 20.2 90 90 SE 8 13 30 1016 10 16.09344 0 0
1:35 am 01:35 Clear 71 21.7 68 20.2 91 91 ESE 7 11 29.97 1015 10 16.09344 0 0
1:55 am 01:55 Clear 71 21.4 68 20 92 92 ESE 6 9 29.97 1015 10 16.09344 0 0
2:15 am 02:15 Clear 70 21 68 20 94 94 E 7 11 29.97 1015 10 16.09344 0 0
2:35 am 02:35 Clear 69 20.8 68 19.8 94 94 ESE 7 11 29.97 1015 10 16.09344 0 0
2:55 am 02:55 Partly Cloudy 69 20.7 67 19.7 94 94 SE 7 11 29.94 1014 10 16.09344 0 0
3:15 am 03:15 Cloudy with Nearby Thunderstorms 70 21.1 68 20 93 93 SE 8 13 29.97 1015 10 16.09344 0 0
3:35 am 03:35 Cloudy 70 21.1 68 20 93 93 ESE 7 11 29.97 1015 10 16.09344 0 0
3:55 am 03:55 Cloudy 70 21 68 20 94 94 E 6 9 29.94 1014 10 16.09344 0 0
4:15 am 04:15 Cloudy 70 21 68 20 94 94 ESE 7 11 29.94 1014 10 16.09344 0 0
4:35 am 04:35 Cloudy 70 21 68 20.1 95 95 ESE 9 15 29.94 1014 10 16.09344 0 0
4:55 am 04:55 Cloudy 70 21 68 20.2 95 95 ESE 9 15 29.94 1014 10 16.09344 0 0
5:15 am 05:15 Cloudy 70 21 68 20.2 95 95 ESE 9 15 29.94 1014 7 11.265408 0 0
5:35 am 05:35 Cloudy 70 21 68 20.2 95 95 ESE 7 11 29.94 1014 10 16.09344 0 0
5:55 am 05:55 Cloudy 70 20.9 68 20.2 96 96 SE 7 11 29.94 1014 10 16.09344 0 0
6:15 am 06:15 Cloudy 69 20.7 68 20.1 96 96 SE 5 7 29.94 1014 10 16.09344 0 0
6:35 am 06:35 Cloudy 69 20.8 68 20.2 96 96 SE 3 6 29.94 1014 10 16.09344 0 0
6:55 am 06:55 Cloudy 69 20.8 69 20.3 97 97 SE 3 6 29.94 1014 7 11.265408 0 0
7:15 am 07:15 Cloudy 70 21 69 20.3 96 96 SE 3 6 29.97 1015 7 11.265408 0 0
7:35 am 07:35 Cloudy 70 21.1 69 20.5 96 96 SSE 3 6 29.97 1015 7 11.265408 0 0
7:55 am 07:55 Cloudy 70 21.3 69 20.5 95 95 SSE 6 9 29.97 1015 10 16.09344 0 0
8:15 am 08:15 Cloudy 71 21.5 69 20.4 93 93 SSE 8 13 29.97 1015 10 16.09344 0 0
8:35 am 08:35 Cloudy 71 21.5 68 20.1 92 92 SE 8 13 29.97 1015 10 16.09344 0 0
8:55 am 08:55 Cloudy 71 21.5 68 20.2 92 92 SSE 13 20 29.97 1015 10 16.09344 0 0
9:15 am 09:15 Cloudy 71 21.5 68 20.2 92 92 S 12 19 29.97 1015 10 16.09344 0 0
9:35 am 09:35 Cloudy 71 21.5 68 20.2 92 92 S 10 17 29.97 1015 10 16.09344 0 0
9:55 am 09:55 Cloudy 71 21.6 68 20.2 92 92 S 9 15 29.97 1015 10 16.09344 0 0
10:15 am 10:15 Cloudy 71 21.5 68 20.2 92 92 S 12 19 29.97 1015 10 16.09344 0 0
10:35 am 10:35 Cloudy 72 22 67 19.7 87 87 S 12 19 29.97 1015 10 16.09344 0 0
10:55 am 10:55 Cloudy 72 22.3 67 19.5 84 84 S 14 22 29.97 1015 10 16.09344 0 0
11:15 am 11:15 Cloudy with Nearby Thunderstorms 73 22.6 67 19.5 83 83 S 17 28 29.97 1015 10 16.09344 0 0
11:35 am 11:35 Cloudy 73 22.5 67 19.4 83 83 S 13 20 29.97 1015 10 16.09344 0 0
11:55 am 11:55 Cloudy 73 23 67 19.4 80 80 SSE 13 20 29.97 1015 10 16.09344 0 0
12:15 pm 12:15 Cloudy 74 23.1 68 19.8 82 82 SSE 9 15 29.97 1015 10 16.09344 0 0
12:35 pm 12:35 Cloudy with Nearby Thunderstorms 73 22.8 67 19.5 82 82 SSE 9 15 29.97 1015 10 16.09344 0 0
12:55 pm 12:55 Cloudy 74 23.4 67 19.5 79 79 S 9 15 29.97 1015 10 16.09344 0 0
1:15 pm 13:15 Cloudy 74 23.5 67 19.3 77 77 SSE 7 11 29.97 1015 10 16.09344 0 0
1:35 pm 13:35 Cloudy 74 23.5 67 19.5 78 78 SSE 8 13 29.97 1015 10 16.09344 0 0
1:55 pm 13:55 Cloudy 75 24 67 19.6 76 76 SSE 9 15 29.94 1014 10 16.09344 0 0
2:15 pm 14:15 Cloudy 76 24.5 67 19.7 75 75 S 8 13 29.94 1014 10 16.09344 0 0
2:35 pm 14:35 Cloudy 76 24.5 67 19.7 75 75 S 7 11 29.91 1013 10 16.09344 0 0
2:55 pm 14:55 Cloudy 78 25.7 68 20.1 71 71 SSW 8 13 29.91 1013 10 16.09344 0 0
3:15 pm 15:15 Partly Cloudy 79 25.9 69 20.4 72 72 S 6 9 29.91 1013 10 16.09344 0 0
3:35 pm 15:35 Partly Cloudy 79 26.2 69 20.5 71 71 SW 7 11 29.91 1013 10 16.09344 0 0
3:55 pm 15:55 Sunny 80 26.5 69 20.7 71 71 SSW 5 7 29.91 1013 10 16.09344 0 0
4:15 pm 16:15 Partly Cloudy 81 27.1 70 20.9 69 69 SSW 5 7 29.91 1013 10 16.09344 0 0
4:35 pm 16:35 Partly Cloudy 80 26.4 69 20.8 71 71 Calm 29.91 1013 10 16.09344 0 0
4:55 pm 16:55 Mostly Cloudy 81 27.2 70 20.9 69 69 ENE 5 7 29.91 1013 10 16.09344 0 0
5:15 pm 17:15 Cloudy 79 26.1 70 20.9 73 73 E 8 13 29.91 1013 10 16.09344 0 0
5:35 pm 17:35 Mostly Cloudy 79 25.9 70 21 74 74 E 7 11 29.91 1013 10 16.09344 0 0
5:55 pm 17:55 Partly Cloudy 79 26.3 70 21 73 73 E 6 9 29.91 1013 10 16.09344 0 0
6:15 pm 18:15 Sunny 79 26.3 70 21 73 73 ESE 9 15 29.91 1013 10 16.09344 0 0
6:35 pm 18:35 Sunny 80 26.6 70 21.1 72 72 ESE 10 17 29.91 1013 10 16.09344 0 0
6:55 pm 18:55 Sunny 78 25.5 69 20.8 75 75 ESE 10 17 29.91 1013 10 16.09344 0 0
7:15 pm 19:15 Partly Cloudy 77 24.8 69 20.6 78 78 ESE 9 15 29.91 1013 10 16.09344 0 0
7:35 pm 19:35 Partly Cloudy 75 24.1 70 21 83 83 ESE 10 17 29.91 1013 10 16.09344 0 0
7:55 pm 19:55 Partly Cloudy with Rain 74 23.1 70 21.2 89 89 E 10 17 29.94 1014 10 16.09344 0 0
8:15 pm 20:15 Partly Cloudy with Nearby Thunderstorms 73 22.6 70 21.1 91 91 E 6 9 29.97 1015 10 16.09344 0 0
8:35 pm 20:35 Mostly Cloudy with Light Rain 73 22.6 71 21.4 93 93 SE 8 13 29.94 1014 10 16.09344 0.01 0.254
8:55 pm 20:55 Mostly Cloudy 72 22.4 71 21.5 95 95 SSE 15 24 29.94 1014 10 16.09344 0.01 0.254
9:15 pm 21:15 Partly Cloudy with Light Drizzle 72 22.1 70 21.3 95 95 S 14 22 29.91 1013 10 16.09344 0 0
9:35 pm 21:35 Mostly Cloudy 71 21.7 70 21 96 96 NNE 8 13 29.94 1014 10 16.09344 0 0
9:55 pm 21:55 Cloudy 73 22.5 70 21.1 92 92 E 6 9 29.94 1014 10 16.09344 0 0
10:15 pm 22:15 Cloudy 72 22 70 21.2 95 95 SSE 3 6 29.94 1014 10 16.09344 0 0
10:35 pm 22:35 Mostly Cloudy 71 21.6 70 21 96 96 SE 3 6 29.94 1014 10 16.09344 0 0
10:55 pm 22:55 Partly Cloudy 69 20.8 69 20.7 99 99 SSE 3 6 29.97 1015 7 11.265408 0 0
11:15 pm 23:15 Mostly Cloudy 69 20.5 69 20.4 99 99 SE 5 7 29.97 1015 10 16.09344 0 0
11:35 pm 23:35 Cloudy 70 21.2 70 21 99 99 ENE 5 7 30 1016 10 16.09344 0 0
11:55 pm 23:55 Cloudy 70 21.2 70 21 99 99 E 6 9 30 1016 7 11.265408 0 0

Powered by AerisWeather